Location: Poughquag
(41.6090°N, 73.6820°W)
Time: 02:15:39
(UTC-05:00)

SR - All Passes

Search period start: 07 December 2023 00:00
Search period end: 17 December 2023 00:00
Orbit: 571 x 872 km, 66.7° (Epoch: 06 December)

Date Brightness Start Highest point End Pass type
(mag) Time Alt. Az. Time Alt. Az. Time Alt. Az.
07 Dec - 09:54:29 10° S 09:59:28 37° ESE 10:04:45 10° NE daylight
07 Dec - 11:36:17 10° WSW 11:41:26 37° NW 11:46:51 10° NNE daylight
07 Dec - 18:34:40 10° NNW 18:39:50 32° NE 18:44:43 10° ESE visible
07 Dec - 20:16:34 10° NW 20:21:58 44° WSW 20:27:00 10° S visible
08 Dec - 09:04:40 10° SE 09:08:20 18° ESE 09:12:09 10° ENE daylight
08 Dec - 10:44:09 10° SW 10:49:40 69° WNW 10:55:31 10° NNE daylight
08 Dec - 12:29:28 10° WNW 12:32:48 15° NW 12:36:11 10° N daylight
08 Dec - 17:43:41 10° N 17:47:45 19° NE 17:51:40 10° E visible
08 Dec - 19:24:46 10° NNW 19:30:34 87° WSW 19:35:56 10° SSE visible
08 Dec - 21:09:34 10° W 21:11:32 12° W 21:13:29 10° WSW visible
09 Dec - 09:52:42 10° SSW 09:58:08 63° ESE 10:03:54 10° NE daylight
09 Dec - 11:35:59 10° W 11:40:37 25° NW 11:45:23 10° N daylight
09 Dec - 16:53:19 10° N 16:55:26 12° NNE 16:57:31 10° NE visible
09 Dec - 18:33:18 10° NNW 18:38:54 49° NE 18:44:09 10° SE visible
09 Dec - 20:15:57 10° NW 20:20:32 26° WSW 20:24:50 10° SSW visible
10 Dec - 09:02:02 10° S 09:06:50 31° ESE 09:11:53 10° NE daylight
10 Dec - 10:43:20 10° WSW 10:48:39 43° NW 10:54:14 10° NNE daylight
10 Dec - 12:30:50 10° NW 12:32:16 11° NNW 12:33:42 10° NNW daylight
10 Dec - 17:42:05 10° NNW 17:47:00 28° NE 17:51:41 10° ESE visible
10 Dec - 19:23:46 10° NW 19:29:18 52° WSW 19:34:27 10° S visible
11 Dec - 08:12:36 10° SE 08:15:45 15° ESE 08:18:58 10° ENE daylight
11 Dec - 09:51:22 10° SSW 09:56:55 80° WNW 10:02:49 10° NNE daylight
11 Dec - 11:36:10 10° W 11:39:54 17° NW 11:43:42 10° N daylight
11 Dec - 16:51:10 10° N 16:54:52 17° NE 16:58:26 10° ENE visible
11 Dec - 18:32:03 10° NNW 18:37:50 80° ENE 18:43:11 10° SSE visible
11 Dec - 20:16:03 10° WNW 20:18:57 14° WSW 20:21:45 10° SW visible
12 Dec - 09:00:05 10° S 09:05:27 54° ESE 09:11:07 10° NE daylight
12 Dec - 10:42:55 10° WSW 10:47:45 28° NW 10:52:47 10° NNE daylight
12 Dec - 16:01:18 10° NNE 16:02:29 11° NNE 16:03:39 10° NE daylight
12 Dec - 17:40:38 10° NNW 17:46:06 42° NE 17:51:14 10° ESE visible
12 Dec - 19:23:01 10° NW 19:27:53 30° WSW 19:32:27 10° SSW visible
13 Dec - 08:09:38 10° SSE 08:14:11 27° ESE 08:18:57 10° NE daylight
13 Dec - 09:50:25 10° SW 09:55:51 50° NW 10:01:33 10° NNE daylight
13 Dec - 11:37:04 10° NW 11:39:19 12° NNW 11:41:35 10° N daylight
13 Dec - 16:49:28 10° N 16:54:08 25° NE 16:58:35 10° E visible
13 Dec - 18:30:58 10° NW 18:36:37 61° WSW 18:41:48 10° SSE visible
14 Dec - 07:20:46 10° SE 07:23:08 13° E 07:25:34 10° ENE daylight
14 Dec - 08:58:36 10° SSW 09:04:11 88° ESE 09:10:05 10° NNE daylight
14 Dec - 10:42:55 10° W 10:46:59 19° NW 10:51:10 10° N daylight
14 Dec - 15:58:41 10° N 16:01:56 15° NE 16:05:06 10° ENE daylight
14 Dec - 17:39:19 10° NNW 17:45:04 69° ENE 17:50:23 10° SE visible
14 Dec - 19:22:48 10° WNW 19:26:20 17° WSW 19:29:43 10° SW visible
15 Dec - 08:07:29 10° S 08:12:44 45° ESE 08:18:17 10° NE daylight
15 Dec - 09:49:51 10° WSW 09:54:54 32° NW 10:00:09 10° NNE daylight
15 Dec - 16:47:58 10° NNW 16:53:17 37° NE 16:58:15 10° ESE visible
15 Dec - 18:30:07 10° NW 18:35:13 35° WSW 18:39:58 10° S visible
16 Dec - 07:17:17 10° SSE 07:21:32 23° ESE 07:25:57 10° NE daylight
16 Dec - 08:57:31 10° SW 09:03:02 58° NW 09:08:51 10° NNE daylight
16 Dec - 10:43:30 10° WNW 10:46:21 14° NW 10:49:13 10° N daylight
16 Dec - 15:56:52 10° N 16:01:14 22° NE 16:05:25 10° E daylight
16 Dec - 17:38:11 10° NNW 17:43:52 73° WSW 17:49:06 10° SSE visible
